,,PA_Meas_PMT16A,,PR_Meas_QMR101_102,,RH_Meas_QMH101,,SR_Meas_QMS101,,TA_Meas_QMH101,,GenWind,,GenWind,
time,status,PA,status,PR,status,RH,status,SR,status,TA,status,DirAvg,status,SpdAvg,
2014-05-28, 06:45:04,VALID,916.052,VALID,0,VALID,94.66,VALID,41.6872,VALID,19.1193,VALID,145,VALID,0.377344,
2014-05-28, 06:46:04,VALID,916.061,VALID,0,VALID,94.6905,VALID,53.5057,VALID,19.1193,VALID,152,VALID,0.933594,
2014-05-28, 06:47:04,VALID,916.062,VALID,0,VALID,94.6981,VALID,62.4233,VALID,19.1568,VALID,173,VALID,1.04609,
2014-05-28, 06:48:04,VALID,916.08,VALID,0,VALID,94.6371,VALID,68.2251,VALID,19.1958,VALID,149,VALID,1.31719,
2014-05-28, 06:49:04,VALID,916.093,VALID,0,VALID,94.5304,VALID,74.2418,VALID,19.2139,VALID,143,VALID,1.16602,
2014-05-28, 06:50:04,VALID,916.128,VALID,0,VALID,94.5837,VALID,79.399,VALID,19.2933,VALID,135,VALID,0.842188,
2014-05-28, 06:51:04,VALID,916.133,VALID,0,VALID,94.5761,VALID,83.5892,VALID,19.3518,VALID,124,VALID,0.596875,
2014-05-28, 06:52:04,VALID,916.169,VALID,0,VALID,94.4846,VALID,86.5976,VALID,19.3713,VALID,127,VALID,1.03906,
2014-05-28, 06:53:04,VALID,916.167,VALID,0,VALID,94.355,VALID,90.1431,VALID,19.3518,VALID,151,VALID,0.901563,
2014-05-28, 06:54:04,VALID,916.163,VALID,0,VALID,94.4846,VALID,96.0524,VALID,19.3908,VALID,152,VALID,0.701953,
2014-05-28, 06:55:04,VALID,916.195,VALID,0,VALID,94.5761,VALID,101.962,VALID,19.4103,VALID,151,VALID,0.742188,
2014-05-28, 06:56:04,VALID,916.218,VALID,0,VALID,94.4084,VALID,106.582,VALID,19.4298,VALID,139,VALID,0.923828,
2014-05-28, 06:57:04,VALID,916.229,VALID,0,VALID,94.2102,VALID,111.631,VALID,19.4688,VALID,142,VALID,1.14531,
2014-05-28, 06:58:04,VALID,916.233,VALID,0,VALID,94.2635,VALID,118.293,VALID,19.5063,VALID,125,VALID,0.695703,
2014-05-28, 06:59:04,VALID,916.249,VALID,0,VALID,93.8214,VALID,124.202,VALID,19.5453,VALID,149,VALID,1.34023,
2014-05-28, 07:00:04,VALID,916.296,VALID,0,VALID,93.5927,VALID,129.037,VALID,19.5858,VALID,133,VALID,0.738672,
2014-05-28, 07:01:04,VALID,916.336,VALID,0,VALID,93.1963,VALID,133.764,VALID,19.7253,VALID,126,VALID,1.67344,
2014-05-28, 07:02:04,VALID,916.32,VALID,0,VALID,92.9752,VALID,137.954,VALID,19.7433,VALID,136,VALID,1.2375,
2014-05-28, 07:03:04,VALID,916.354,VALID,0,VALID,92.6245,VALID,141.93,VALID,19.7628,VALID,154,VALID,0.50625,
2014-05-28, 07:04:04,VALID,916.405,VALID,0,VALID,92.6321,VALID,144.293,VALID,19.8393,VALID,125,VALID,0.898438,
2014-05-28, 07:05:04,VALID,916.383,VALID,0,VALID,92.8837,VALID,124.095,VALID,19.8948,VALID,111,VALID,0.455469,
2014-05-28, 07:06:04,VALID,916.427,VALID,0,VALID,92.5864,VALID,90.7878,VALID,19.9953,VALID,111,VALID,0.877734,
2014-05-28, 07:07:04,VALID,916.423,VALID,0,VALID,92.3119,VALID,79.0767,VALID,19.9953,VALID,97,VALID,1.15469,
2014-05-28, 07:08:04,VALID,916.44,VALID,0,VALID,92.0375,VALID,78.7544,VALID,19.9968,VALID,99,VALID,1.77617,
2014-05-28, 07:09:04,VALID,916.444,VALID,0,VALID,91.8545,VALID,80.0437,VALID,19.8768,VALID,111,VALID,1.0418,
2014-05-28, 07:10:04,VALID,916.459,VALID,0,VALID,92.0604,VALID,81.1181,VALID,19.8588,VALID,112,VALID,1.13867,
2014-05-28, 07:11:04,VALID,916.447,VALID,0,VALID,92.2433,VALID,82.4074,VALID,19.8393,VALID,96,VALID,1.21016,
2014-05-28, 07:12:04,VALID,916.43,VALID,0,VALID,92.5711,VALID,83.2669,VALID,19.8198,VALID,110,VALID,0.591797,
2014-05-28, 07:13:04,VALID,916.422,VALID,0,VALID,92.7846,VALID,83.9115,VALID,19.8198,VALID,99,VALID,1.10508,
2014-05-28, 07:14:04,VALID,916.431,VALID,0,VALID,92.8303,VALID,84.6636,VALID,19.8198,VALID,99,VALID,1.04922,
2014-05-28, 07:15:04,VALID,916.433,VALID,0,VALID,92.9447,VALID,86.0604,VALID,19.8198,VALID,101,VALID,1.04297,
2014-05-28, 07:16:04,VALID,916.413,VALID,0,VALID,92.8913,VALID,85.738,VALID,19.7793,VALID,136,VALID,0.941016,
2014-05-28, 07:17:04,VALID,916.431,VALID,0,VALID,92.838,VALID,84.6636,VALID,19.7988,VALID,134,VALID,1.32695,
2014-05-28, 07:18:04,VALID,916.434,VALID,0,VALID,92.9599,VALID,84.3413,VALID,19.8393,VALID,142,VALID,0.8875,
2014-05-28, 07:19:04,VALID,916.478,VALID,0,VALID,92.8075,VALID,84.5562,VALID,19.8198,VALID,142,VALID,0.889063,
2014-05-28, 07:20:04,VALID,916.469,VALID,0,VALID,92.9066,VALID,85.4157,VALID,19.8588,VALID,137,VALID,0.365234,
2014-05-28, 07:21:04,VALID,916.462,VALID,0,VALID,92.8151,VALID,85.738,VALID,19.8393,VALID,129,VALID,0.74375,
2014-05-28, 07:22:04,VALID,916.483,VALID,0,VALID,92.7312,VALID,86.9199,VALID,19.8393,VALID,131,VALID,1.33281,
2014-05-28, 07:23:04,VALID,916.524,VALID,0,VALID,92.716,VALID,86.2752,VALID,19.8588,VALID,131,VALID,1.21094,
2014-05-28, 07:24:04,VALID,916.538,VALID,0,VALID,92.5025,VALID,86.4901,VALID,19.8393,VALID,149,VALID,1.07344,
2014-05-28, 07:25:04,VALID,916.549,VALID,0,VALID,92.4187,VALID,86.8125,VALID,19.8378,VALID,151,VALID,1.12891,
2014-05-28, 07:26:04,VALID,916.591,VALID,0,VALID,92.2891,VALID,87.1348,VALID,19.8378,VALID,138,VALID,0.871484,
2014-05-28, 07:27:04,VALID,916.613,VALID,0,VALID,92.2052,VALID,87.672,VALID,19.8588,VALID,141,VALID,0.803516,
2014-05-28, 07:28:04,VALID,916.645,VALID,0,VALID,92.1519,VALID,88.4241,VALID,19.8783,VALID,138,VALID,0.881641,
2014-05-28, 07:29:04,VALID,916.669,VALID,0,VALID,92.0756,VALID,89.1762,VALID,19.9173,VALID,147,VALID,1.08438,
2014-05-28, 07:30:04,VALID,916.7,VALID,0,VALID,91.946,VALID,90.1431,VALID,19.8978,VALID,166,VALID,1.31523,
2014-05-28, 07:31:04,VALID,916.748,VALID,0,VALID,91.7097,VALID,91.4324,VALID,19.9173,VALID,149,VALID,1.08516,
2014-05-28, 07:32:04,VALID,916.771,VALID,0,VALID,91.6945,VALID,92.7217,VALID,19.9368,VALID,175,VALID,0.814844,
2014-05-28, 07:33:04,VALID,916.792,VALID,0,VALID,91.7021,VALID,94.4408,VALID,19.9758,VALID,165,VALID,0.460938,
2014-05-28, 07:34:04,VALID,916.844,VALID,0,VALID,91.4505,VALID,95.9449,VALID,19.9953,VALID,144,VALID,0.705078,
2014-05-28, 07:35:04,VALID,916.879,VALID,0,VALID,91.2523,VALID,97.5566,VALID,20.0148,VALID,149,VALID,0.965234,
2014-05-28, 07:36:04,VALID,916.863,VALID,0,VALID,91.1303,VALID,98.9533,VALID,20.0343,VALID,163,VALID,0.990625,
2014-05-28, 07:37:04,VALID,916.908,VALID,0,VALID,90.9245,VALID,100.135,VALID,20.0538,VALID,162,VALID,0.609766,
2014-05-28, 07:38:04,VALID,916.96,VALID,0,VALID,90.9473,VALID,101.424,VALID,20.0733,VALID,165,VALID,0.660937,
2014-05-28, 07:39:04,VALID,916.969,VALID,0,VALID,90.9245,VALID,102.606,VALID,20.0928,VALID,151,VALID,0.826172,
2014-05-28, 07:40:04,VALID,916.986,VALID,0,VALID,91.3057,VALID,104.11,VALID,20.1529,VALID,151,VALID,0.246875,
2014-05-28, 07:41:04,VALID,916.971,VALID,0,VALID,90.9626,VALID,105.615,VALID,20.1708,VALID,134,VALID,0.468359,
2014-05-28, 07:42:04,VALID,916.997,VALID,0,VALID,91.1227,VALID,106.797,VALID,20.2293,VALID,134,VALID,0.123047,
2014-05-28, 07:43:04,VALID,917.027,VALID,0,VALID,90.9473,VALID,107.763,VALID,20.2684,VALID,134,VALID,0.471094,
2014-05-28, 07:44:04,VALID,917.029,VALID,0,VALID,90.368,VALID,108.516,VALID,20.2684,VALID,141,VALID,0.602344,
2014-05-28, 07:45:04,VALID,917.065,VALID,0,VALID,90.5357,VALID,109.16,VALID,20.3269,VALID,156,VALID,0.625,
2014-05-28, 07:46:04,VALID,917.065,VALID,0,VALID,90.4976,VALID,109.912,VALID,20.3659,VALID,126,VALID,0.833594,
2014-05-28, 07:47:04,VALID,917.113,VALID,0,VALID,90.0783,VALID,110.557,VALID,20.3854,VALID,132,VALID,0.902344,
2014-05-28, 07:48:04,VALID,917.086,VALID,0,VALID,89.5675,VALID,111.309,VALID,20.3643,VALID,119,VALID,0.846484,
2014-05-28, 07:49:04,VALID,917.101,VALID,0,VALID,90.0478,VALID,112.169,VALID,20.4439,VALID,133,VALID,0.534375,
2014-05-28, 07:50:04,VALID,917.087,VALID,0,VALID,90.2841,VALID,113.35,VALID,20.4829,VALID,124,VALID,0.495703,
2014-05-28, 07:51:04,VALID,917.115,VALID,0,VALID,90.8559,VALID,114.855,VALID,20.5609,VALID,125,VALID,0.478516,
2014-05-28, 07:52:04,VALID,917.14,VALID,0,VALID,89.7352,VALID,116.574,VALID,20.5414,VALID,133,VALID,0.782422,
2014-05-28, 07:53:04,VALID,917.108,VALID,0,VALID,89.7581,VALID,118.508,VALID,20.5609,VALID,133,VALID,0.702734,
2014-05-28, 07:54:04,VALID,917.102,VALID,0,VALID,88.9043,VALID,120.656,VALID,20.5609,VALID,134,VALID,1.0875,
2014-05-28, 07:55:04,VALID,917.126,VALID,0,VALID,88.3935,VALID,122.913,VALID,20.5414,VALID,153,VALID,0.955469,
2014-05-28, 07:56:04,VALID,917.085,VALID,0,VALID,88.4545,VALID,125.921,VALID,20.5609,VALID,124,VALID,1.61992,
2014-05-28, 07:57:04,VALID,917.072,VALID,0,VALID,88.8204,VALID,129.574,VALID,20.5609,VALID,142,VALID,1.33438,
2014-05-28, 07:58:04,VALID,917.069,VALID,0,VALID,88.9348,VALID,132.582,VALID,20.5204,VALID,122,VALID,0.795313,
2014-05-28, 07:59:04,VALID,917.061,VALID,0,VALID,89.0034,VALID,136.558,VALID,20.5609,VALID,130,VALID,0.985937,
2014-05-28, 08:00:04,VALID,917.046,VALID,0,VALID,88.8967,VALID,140.426,VALID,20.5804,VALID,122,VALID,1.07227,
2014-05-28, 08:01:04,VALID,917.006,VALID,0,VALID,87.9513,VALID,144.401,VALID,20.5009,VALID,135,VALID,1.08242,
2014-05-28, 08:02:04,VALID,916.979,VALID,0,VALID,88.485,VALID,148.269,VALID,20.5399,VALID,148,VALID,1.03047,
2014-05-28, 08:03:04,VALID,916.988,VALID,0,VALID,88.5536,VALID,152.459,VALID,20.5789,VALID,147,VALID,0.677344,
2014-05-28, 08:04:04,VALID,916.993,VALID,0,VALID,88.9043,VALID,156.972,VALID,20.6179,VALID,116,VALID,0.525391,
2014-05-28, 08:05:04,VALID,917.039,VALID,0,VALID,88.2715,VALID,161.269,VALID,20.6163,VALID,126,VALID,0.942578,
2014-05-28, 08:06:04,VALID,917.024,VALID,0,VALID,88.5307,VALID,165.889,VALID,20.6959,VALID,138,VALID,0.769531,
2014-05-28, 08:07:04,VALID,917.039,VALID,0,VALID,88.4926,VALID,171.154,VALID,20.7544,VALID,126,VALID,0.591797,
2014-05-28, 08:08:04,VALID,917.031,VALID,0,VALID,88.6146,VALID,177.278,VALID,20.8324,VALID,120,VALID,0.689062,
2014-05-28, 08:09:04,VALID,917.068,VALID,0,VALID,88.0276,VALID,183.187,VALID,20.9316,VALID,119,VALID,0.740234,
2014-05-28, 08:10:04,VALID,917.037,VALID,0,VALID,88.302,VALID,188.452,VALID,21.0275,VALID,104,VALID,0.779297,
2014-05-28, 08:11:04,VALID,917.081,VALID,0,VALID,87.8065,VALID,192.857,VALID,21.0665,VALID,125,VALID,0.510547,
2014-05-28, 08:12:04,VALID,917.091,VALID,0,VALID,87.8522,VALID,197.262,VALID,21.1445,VALID,134,VALID,0.855859,
2014-05-28, 08:13:04,VALID,917.077,VALID,0,VALID,87.6312,VALID,200.7,VALID,21.2421,VALID,125,VALID,0.426172,
2014-05-28, 08:14:04,VALID,917.09,VALID,0,VALID,86.9756,VALID,205.535,VALID,21.3412,VALID,106,VALID,0.757031,
2014-05-28, 08:15:04,VALID,917.123,VALID,0,VALID,85.832,VALID,211.229,VALID,21.3396,VALID,102,VALID,1.06016,
2014-05-28, 08:16:04,VALID,917.098,VALID,0,VALID,85.954,VALID,216.494,VALID,21.3998,VALID,66,VALID,0.749219,
2014-05-28, 08:17:04,VALID,917.14,VALID,0,VALID,85.771,VALID,240.883,VALID,21.4177,VALID,59,VALID,0.676953,
2014-05-28, 08:18:04,VALID,917.126,VALID,0,VALID,86.541,VALID,222.726,VALID,21.5168,VALID,59,VALID,0.40625,
2014-05-28, 08:19:04,VALID,917.138,VALID,0,VALID,86.076,VALID,223.692,VALID,21.6518,VALID,59,VALID,0.766406,
2014-05-28, 08:20:04,VALID,917.138,VALID,0,VALID,83.8423,VALID,226.056,VALID,21.7087,VALID,67,VALID,0.507813,
2014-05-28, 08:21:04,VALID,917.156,VALID,0,VALID,84.2235,VALID,230.032,VALID,21.8079,VALID,62,VALID,0.553906,
2014-05-28, 08:22:04,VALID,917.189,VALID,0,VALID,84.1701,VALID,236.263,VALID,21.9054,VALID,63,VALID,0.487109,
2014-05-28, 08:23:04,VALID,917.182,VALID,0,VALID,83.3697,VALID,240.776,VALID,21.964,VALID,72,VALID,0.779688,
2014-05-28, 08:24:04,VALID,917.201,VALID,0,VALID,84.5437,VALID,244.429,VALID,21.964,VALID,78,VALID,0.423828,
2014-05-28, 08:25:04,VALID,917.207,VALID,0,VALID,83.8195,VALID,248.189,VALID,21.8647,VALID,126,VALID,0.465234,
2014-05-28, 08:26:04,VALID,917.215,VALID,0,VALID,83.019,VALID,252.379,VALID,21.8859,VALID,112,VALID,0.804297,
2014-05-28, 08:27:04,VALID,917.191,VALID,0,VALID,83.545,VALID,257.322,VALID,21.8664,VALID,112,VALID,0.369141,
2014-05-28, 08:28:04,VALID,917.212,VALID,0,VALID,84.1168,VALID,265.595,VALID,21.964,VALID,112,VALID,0.39375,
2014-05-28, 08:29:04,VALID,917.22,VALID,0,VALID,83.5374,VALID,286.653,VALID,22.0208,VALID,112,VALID,0.330859,
2014-05-28, 08:30:04,VALID,917.209,VALID,0,VALID,84.3074,VALID,334.249,VALID,22.1413,VALID,112,VALID,0.492578,
2014-05-28, 08:31:04,VALID,917.225,VALID,0,VALID,82.3176,VALID,348.647,VALID,22.1769,VALID,112,VALID,0.561719,
2014-05-28, 08:32:04,VALID,917.225,VALID,0,VALID,83.0038,VALID,397.21,VALID,22.2159,VALID,112,VALID,0.557422,
2014-05-28, 08:33:04,VALID,917.247,VALID,0,VALID,82.4396,VALID,458.989,VALID,22.372,VALID,111,VALID,0.303516,
2014-05-28, 08:34:04,VALID,917.24,VALID,0,VALID,82.1042,VALID,447.922,VALID,22.647,VALID,111,VALID,0.378516,
2014-05-28, 08:35:04,VALID,917.251,VALID,0,VALID,81.2046,VALID,354.448,VALID,22.8404,VALID,111,VALID,0.515234,
2014-05-28, 08:36:04,VALID,917.241,VALID,0,VALID,81.8907,VALID,362.506,VALID,22.8226,VALID,166,VALID,0.607422,
2014-05-28, 08:37:04,VALID,917.273,VALID,0,VALID,82.8055,VALID,356.06,VALID,22.7445,VALID,166,VALID,0.685938,
2014-05-28, 08:38:04,VALID,917.277,VALID,0,VALID,81.5705,VALID,328.448,VALID,22.5689,VALID,234,VALID,0.908594,
2014-05-28, 08:39:04,VALID,917.288,VALID,0,VALID,82.5692,VALID,328.125,VALID,22.3933,VALID,243,VALID,0.769531,
2014-05-28, 08:40:04,VALID,917.277,VALID,0,VALID,83.2858,VALID,349.936,VALID,22.2159,VALID,275,VALID,0.992578,
2014-05-28, 08:41:04,VALID,917.316,VALID,0,VALID,83.9719,VALID,351.225,VALID,22.081,VALID,275,VALID,0.582031,
2014-05-28, 08:42:04,VALID,917.278,VALID,0,VALID,84.597,VALID,450.501,VALID,21.9818,VALID,270,VALID,0.548047,
2014-05-28, 08:43:04,VALID,917.291,VALID,0,VALID,85.1307,VALID,578.893,VALID,22.003,VALID,270,VALID,0.476953,
2014-05-28, 08:44:04,VALID,917.307,VALID,0,VALID,84.6504,VALID,584.05,VALID,22.0598,VALID,271,VALID,0.358203,
2014-05-28, 08:45:04,VALID,917.306,VALID,0,VALID,84.6275,VALID,406.772,VALID,22.2371,VALID,271,VALID,0.594141,
2014-05-28, 08:46:04,VALID,917.317,VALID,0,VALID,83.6822,VALID,243.784,VALID,22.3347,VALID,271,VALID,0.433594,
2014-05-28, 08:47:04,VALID,917.319,VALID,0,VALID,84.2921,VALID,262.264,VALID,22.4128,VALID,273,VALID,0.721484,
2014-05-28, 08:48:04,VALID,917.337,VALID,0,VALID,83.5221,VALID,428.69,VALID,22.5103,VALID,279,VALID,0.537109,
2014-05-28, 08:49:04,VALID,917.357,VALID,0,VALID,82.8818,VALID,511.527,VALID,22.5689,VALID,279,VALID,0.422266,
2014-05-28, 08:50:04,VALID,917.377,VALID,0,VALID,83.1334,VALID,469.84,VALID,22.6843,VALID,279,VALID,0.415234,
2014-05-28, 08:51:04,VALID,917.405,VALID,0,VALID,82.9428,VALID,539.462,VALID,22.8387,VALID,279,VALID,0.296875,
2014-05-28, 08:52:04,VALID,917.412,VALID,0,VALID,82.5616,VALID,528.288,VALID,23.0941,VALID,272,VALID,0.312891,
2014-05-28, 08:53:04,VALID,917.436,VALID,0,VALID,77.8427,VALID,483.055,VALID,23.2502,VALID,287,VALID,0.542578,
2014-05-28, 08:54:04,VALID,917.425,VALID,0,VALID,76.6992,VALID,500.998,VALID,23.3283,VALID,287,VALID,0.419531,
2014-05-28, 08:55:04,VALID,917.439,VALID,0,VALID,74.0462,VALID,509.379,VALID,23.4259,VALID,248,VALID,0.825,
2014-05-28, 08:56:04,VALID,917.439,VALID,0,VALID,75.6243,VALID,503.684,VALID,23.4064,VALID,262,VALID,0.791406,
2014-05-28, 08:57:04,VALID,917.451,VALID,0,VALID,73.3525,VALID,500.461,VALID,23.3691,VALID,262,VALID,0.695703,
2014-05-28, 08:58:04,VALID,917.423,VALID,0,VALID,70.8749,VALID,499.924,VALID,23.3674,VALID,258,VALID,0.792188,
2014-05-28, 08:59:04,VALID,917.428,VALID,0,VALID,71.2637,VALID,498.097,VALID,23.4454,VALID,257,VALID,0.570313,
2014-05-28, 09:00:04,VALID,917.422,VALID,0,VALID,72.4072,VALID,498.312,VALID,23.504,VALID,258,VALID,0.567187,
2014-05-28, 09:01:04,VALID,917.427,VALID,0,VALID,72.2852,VALID,498.634,VALID,23.543,VALID,258,VALID,0.543359,
2014-05-28, 09:02:04,VALID,917.469,VALID,0,VALID,72.1785,VALID,499.924,VALID,23.6602,VALID,258,VALID,0.374609,
2014-05-28, 09:03:04,VALID,917.459,VALID,0,VALID,70.4861,VALID,500.461,VALID,23.6992,VALID,258,VALID,0.433984,
2014-05-28, 09:04:04,VALID,917.501,VALID,0,VALID,70.9206,VALID,502.61,VALID,23.834,VALID,272,VALID,0.309375,
2014-05-28, 09:05:04,VALID,917.504,VALID,0,VALID,67.1013,VALID,504.436,VALID,24.0701,VALID,300,VALID,0.576953,
2014-05-28, 09:06:04,VALID,917.48,VALID,0,VALID,65.4318,VALID,506.155,VALID,24.0878,VALID,299,VALID,0.469141,
2014-05-28, 09:07:04,VALID,917.484,VALID,0,VALID,66.5524,VALID,509.271,VALID,24.1269,VALID,300,VALID,0.454297,
2014-05-28, 09:08:04,VALID,917.484,VALID,0,VALID,66.0188,VALID,512.172,VALID,24.1659,VALID,299,VALID,0.264453,
2014-05-28, 09:09:04,VALID,917.485,VALID,0,VALID,66.8421,VALID,515.288,VALID,24.2245,VALID,299,VALID,0,
2014-05-28, 09:10:04,VALID,917.457,VALID,0,VALID,65.8206,VALID,517.114,VALID,24.4002,VALID,299,VALID,0,
2014-05-28, 09:11:04,VALID,917.484,VALID,0,VALID,65.8282,VALID,518.833,VALID,24.6168,VALID,299,VALID,0.0339844,
2014-05-28, 09:12:04,VALID,917.477,VALID,0,VALID,65.4394,VALID,521.197,VALID,24.7516,VALID,299,VALID,0,
2014-05-28, 09:13:04,VALID,917.496,VALID,0,VALID,64.5627,VALID,522.809,VALID,24.9859,VALID,299,VALID,0.389453,
2014-05-28, 09:14:04,VALID,917.513,VALID,0,VALID,64.5017,VALID,523.238,VALID,25.2398,VALID,299,VALID,0.319531,
2014-05-28, 09:15:04,VALID,917.499,VALID,0,VALID,64.2197,VALID,524.205,VALID,25.4741,VALID,300,VALID,0.516406,
2014-05-28, 09:16:04,VALID,917.52,VALID,0,VALID,65.043,VALID,526.032,VALID,25.4156,VALID,24,VALID,0.666797,
2014-05-28, 09:17:04,VALID,917.504,VALID,0,VALID,67.9246,VALID,527.858,VALID,25.357,VALID,49,VALID,0.598828,
2014-05-28, 09:18:04,VALID,917.54,VALID,0,VALID,67.8255,VALID,530.974,VALID,25.2984,VALID,13,VALID,0.727734,
2014-05-28, 09:19:04,VALID,917.557,VALID,0,VALID,67.8941,VALID,533.875,VALID,25.1422,VALID,13,VALID,0.367188,
2014-05-28, 09:20:04,VALID,917.572,VALID,0,VALID,68.7403,VALID,534.305,VALID,24.9859,VALID,13,VALID,0.610547,
2014-05-28, 09:21:04,VALID,917.6,VALID,0,VALID,70.5166,VALID,536.024,VALID,24.9469,VALID,13,VALID,0.503516,
2014-05-28, 09:22:04,VALID,917.58,VALID,0,VALID,70.0058,VALID,538.388,VALID,24.9664,VALID,13,VALID,0.565625,
2014-05-28, 09:23:04,VALID,917.592,VALID,0,VALID,69.4646,VALID,541.933,VALID,24.9255,VALID,13,VALID,0.699609,
2014-05-28, 09:24:04,VALID,917.586,VALID,0,VALID,70.1507,VALID,545.049,VALID,24.9059,VALID,13,VALID,1.09297,
2014-05-28, 09:25:04,VALID,917.586,VALID,0,VALID,68.9233,VALID,548.917,VALID,24.8297,VALID,13,VALID,0.69375,
2014-05-28, 09:26:04,VALID,917.632,VALID,0,VALID,68.8471,VALID,549.991,VALID,24.693,VALID,13,VALID,0.930859,
2014-05-28, 09:27:04,VALID,917.572,VALID,0,VALID,69.3578,VALID,552.14,VALID,24.5173,VALID,13,VALID,0.988672,
2014-05-28, 09:28:04,VALID,917.585,VALID,0,VALID,70.0058,VALID,553.537,VALID,24.3611,VALID,13,VALID,0.667188,
2014-05-28, 09:29:04,VALID,917.621,VALID,0,VALID,70.7072,VALID,559.124,VALID,24.3416,VALID,13,VALID,0.990234,
2014-05-28, 09:30:04,VALID,917.585,VALID,0,VALID,71.4238,VALID,559.554,VALID,24.3221,VALID,13,VALID,0.326953,
2014-05-28, 09:31:04,VALID,917.599,VALID,0,VALID,71.7973,VALID,564.173,VALID,24.4783,VALID,13,VALID,0.373828,
2014-05-28, 09:32:04,VALID,917.578,VALID,0,VALID,71.3552,VALID,564.711,VALID,24.693,VALID,13,VALID,0.31875,
2014-05-28, 09:33:04,VALID,917.59,VALID,0,VALID,67.8865,VALID,566.107,VALID,24.7126,VALID,13,VALID,0.975,
2014-05-28, 09:34:04,VALID,917.578,VALID,0,VALID,69.5408,VALID,570.942,VALID,24.5954,VALID,13,VALID,0.701953,
2014-05-28, 09:35:04,VALID,917.598,VALID,0,VALID,69.861,VALID,573.306,VALID,24.6149,VALID,13,VALID,0.639453,
2014-05-28, 09:36:04,VALID,917.575,VALID,0,VALID,68.8547,VALID,575.455,VALID,24.693,VALID,13,VALID,0.974609,
2014-05-28, 09:37:04,VALID,917.561,VALID,0,VALID,68.8242,VALID,577.174,VALID,24.6912,VALID,13,VALID,0.439844,
2014-05-28, 09:38:04,VALID,917.558,VALID,0,VALID,69.5865,VALID,579.967,VALID,24.7711,VALID,13,VALID,0.446094,
2014-05-28, 09:39:04,VALID,917.583,VALID,0,VALID,68.9767,VALID,579.752,VALID,24.9469,VALID,13,VALID,0.651172,
2014-05-28, 09:40:04,VALID,917.593,VALID,0,VALID,71.0045,VALID,582.009,VALID,25.1226,VALID,13,VALID,0.954297,
2014-05-28, 09:41:04,VALID,917.589,VALID,0,VALID,66.7278,VALID,585.554,VALID,25.3355,VALID,20,VALID,1.66406,
2014-05-28, 09:42:04,VALID,917.583,VALID,0,VALID,69.4569,VALID,588.992,VALID,25.5308,VALID,14,VALID,0.892578,
2014-05-28, 09:43:04,VALID,917.6,VALID,0,VALID,66.9946,VALID,591.571,VALID,25.7085,VALID,41,VALID,0.65,
2014-05-28, 09:44:04,VALID,917.584,VALID,0,VALID,65.4318,VALID,593.183,VALID,25.8648,VALID,41,VALID,0.544531,
2014-05-28, 09:45:04,VALID,917.598,VALID,0,VALID,65.4242,VALID,596.513,VALID,26.0972,VALID,33,VALID,0.503906,
2014-05-28, 09:46:04,VALID,917.575,VALID,0,VALID,61.7878,VALID,599.951,VALID,26.273,VALID,278,VALID,0.720312,
2014-05-28, 09:47:04,VALID,917.632,VALID,0,VALID,62.4968,VALID,605.538,VALID,25.9604,VALID,281,VALID,0.428516,
2014-05-28, 09:48:04,VALID,917.599,VALID,0,VALID,62.6569,VALID,607.58,VALID,25.6675,VALID,295,VALID,1.53867,
2014-05-28, 09:49:04,VALID,917.617,VALID,0,VALID,65.0887,VALID,609.299,VALID,25.5113,VALID,296,VALID,1.21758,
2014-05-28, 09:50:04,VALID,917.608,VALID,0,VALID,67.0861,VALID,609.084,VALID,25.2574,VALID,301,VALID,1.29258,
2014-05-28, 09:51:04,VALID,917.626,VALID,0,VALID,68.4125,VALID,610.695,VALID,25.1422,VALID,318,VALID,0.645703,
2014-05-28, 09:52:04,VALID,917.625,VALID,0,VALID,67.6273,VALID,614.563,VALID,25.2203,VALID,314,VALID,0.706641,
2014-05-28, 09:53:04,VALID,917.624,VALID,0,VALID,66.2399,VALID,619.291,VALID,25.2203,VALID,286,VALID,0.532422,
2014-05-28, 09:54:04,VALID,917.643,VALID,0,VALID,68.443,VALID,620.58,VALID,25.2984,VALID,287,VALID,0.447656,
2014-05-28, 09:55:04,VALID,917.653,VALID,0,VALID,65.2259,VALID,621.654,VALID,25.2788,VALID,272,VALID,0.763672,
2014-05-28, 09:56:04,VALID,917.671,VALID,0,VALID,66.682,VALID,623.803,VALID,25.2965,VALID,272,VALID,0.680859,
2014-05-28, 09:57:04,VALID,917.659,VALID,0,VALID,68.4507,VALID,626.704,VALID,25.4136,VALID,323,VALID,0.791016,
2014-05-28, 09:58:04,VALID,917.67,VALID,0,VALID,67.4749,VALID,628.208,VALID,25.6284,VALID,338,VALID,0.943359,
2014-05-28, 09:59:04,VALID,917.671,VALID,0,VALID,65.4623,VALID,630.894,VALID,25.7671,VALID,309,VALID,0.528516,
2014-05-28, 10:00:04,VALID,917.639,VALID,0,VALID,64.6008,VALID,631.539,VALID,25.8237,VALID,294,VALID,1.0168,
2014-05-28, 10:01:04,VALID,917.721,VALID,0,VALID,64.1206,VALID,633.473,VALID,25.728,VALID,291,VALID,0.439844,
2014-05-28, 10:02:04,VALID,917.706,VALID,0,VALID,65.1573,VALID,637.448,VALID,25.7066,VALID,286,VALID,0.537109,
2014-05-28, 10:03:04,VALID,917.693,VALID,0,VALID,65.7367,VALID,637.663,VALID,25.6694,VALID,286,VALID,0.607813,
2014-05-28, 10:04:04,VALID,917.675,VALID,0,VALID,64.9134,VALID,640.886,VALID,25.689,VALID,286,VALID,0.792969,
2014-05-28, 10:05:04,VALID,917.685,VALID,0,VALID,65.9959,VALID,642.606,VALID,25.5894,VALID,286,VALID,0.462891,
2014-05-28, 10:06:04,VALID,917.694,VALID,0,VALID,66.5295,VALID,644.432,VALID,25.6284,VALID,286,VALID,0.211719,
2014-05-28, 10:07:04,VALID,917.706,VALID,0,VALID,65.4928,VALID,644.754,VALID,25.7456,VALID,286,VALID,0.54375,
2014-05-28, 10:08:04,VALID,917.688,VALID,0,VALID,67.1928,VALID,646.796,VALID,25.9038,VALID,292,VALID,0.499219,
2014-05-28, 10:09:04,VALID,917.679,VALID,0,VALID,65.4013,VALID,648.085,VALID,26.019,VALID,260,VALID,1.16953,
2014-05-28, 10:10:04,VALID,917.745,VALID,0,VALID,66.0645,VALID,652.168,VALID,26.0581,VALID,260,VALID,0.366406,
2014-05-28, 10:11:04,VALID,917.717,VALID,0,VALID,66.156,VALID,654.639,VALID,26.2925,VALID,296,VALID,0.721094,
2014-05-28, 10:12:04,VALID,917.707,VALID,0,VALID,63.8537,VALID,657.325,VALID,26.3882,VALID,312,VALID,0.601172,
2014-05-28, 10:13:04,VALID,917.724,VALID,0,VALID,64.2197,VALID,660.011,VALID,26.2514,VALID,285,VALID,0.783594,
2014-05-28, 10:14:04,VALID,917.702,VALID,0,VALID,66.1484,VALID,664.523,VALID,26.1558,VALID,281,VALID,0.667578,
2014-05-28, 10:15:04,VALID,917.689,VALID,0,VALID,66.0569,VALID,669.251,VALID,26.2319,VALID,304,VALID,0.754687,
2014-05-28, 10:16:04,VALID,917.709,VALID,0,VALID,63.0304,VALID,670.755,VALID,26.31,VALID,273,VALID,0.404297,
2014-05-28, 10:17:04,VALID,917.689,VALID,0,VALID,66.7887,VALID,670.97,VALID,26.3511,VALID,301,VALID,0.727734,
2014-05-28, 10:18:04,VALID,917.663,VALID,0,VALID,66.682,VALID,673.656,VALID,26.4703,VALID,330,VALID,0.653125,